Main page
METAR-TAF:

METAR-TAF

Airports :

Kermanshah Airport

Kermanshah, Iran

latitude: 34-16N, longitude: 047-07E, elevation: 1320 m

Current weather observation

The report was made 21 minutes ago, at 04:30 UTC
Wind 6 kt from the East/Southeast
Temperature 9°C
Humidity 49%
Pressure 1018 hPa
Visibility 10 km or more
Scattered clouds at a height of 5000 ft

METAR: OICC 160430Z 11006KT 9999 SCT050 09/M01 Q1017 A3006 NOSIG

Time: 08:21 (04:51 UTC)


TAF: missing

Weather observations and forecasts of more than 4000 airports (METAR and TAF reports).

The available stations are represented by yellow and red dots on the map.

Hover mouse over dot to see the name of the station.

Then click to see weather observations and forecasts.

To change the map : click on the green buttons with a black cross to zoom in, on the green button with a dash to zoom out, or on the green arrows for adjacent maps.


METAR-TAF: